Погода в Великенте

Россия / Республика Дагестан     42°11′13″N   48°04′00″E
темп.,
°C
ветер,
м/с
пор.,
м/с
влажн.,
%
обл.,
%
осадки,
мм/ч
давл.,
гПа
погр.,
м
28 ноября, вс
вс2800:00+6зсз118358 0.0 101915
03:00+6зсз0180100 0.0 101913
06:00+6ююз1177100 0.0 101818
09:00+9вюв116291 0.0 101898
12:00+12вюв225614 0.0 1016416
15:00+12в235926 0.0 1015280
18:00+9юв12778 0.0 101562
21:00+8юв118197 0.0 101545
29 ноября, пн
пн2900:00+7зсз11845 0.0 101613
03:00+7юз117879 0.0 101515
06:00+7з118427 0.0 101614
09:00+10з128137 0.0 101779
12:00+13ссв227330 0.0 1017507
15:00+12св2179100 0.0 1016330
18:00+9вюв11920 0.0 101713
21:00+9ююв11920 0.0 101512
30 ноября, вт
вт3000:00+9ююв228376 0.0 101241
03:00+9ююв24636 0.0 100965
06:00+11ю1244100 0.0 100522
09:00+15ю1236100 0.0 100326
12:00+19с4538100 0.0 1001112
15:00+15сз41252100 0.0 1005540
18:00+13зюз34604 0.0 100762
21:00+12зюз33655 0.0 100530
1 декабря, ср
ср100:00+12ююз3364100 0.0 100022
03:00+13ю2248100 0.0 99625
06:00+18юз5829100 0.0 99495
09:00+13ссв356325 0.0 999228
12:00+15с59500 0.0 1003772
15:00+12св466936 0.0 1008534
18:00+9ссз61164100 0.8 10121124
21:00+8зсз3757100 1.2 1014829
2 декабря, чт
чт200:00+7зсз3657100 0.1 10161089
03:00+5сз3671100 0.5 1017498
06:00+5зюз2380100 0.3 1018352
09:00+7юз3570100 0.3 1020258
12:00+10св2249100 0.0 1020941
15:00+9в225425 0.0 1021446
18:00+7ююв11650 0.0 102340
21:00+6юз22590 0.0 102430